TimeMDT,TemperatureF,Dew PointF,Humidity,Sea Level PressureIn,VisibilityMPH,Wind Direction,Wind SpeedMPH,Gust SpeedMPH,PrecipitationIn,Events,Conditions,WindDirDegrees,DateUTC
12:53 AM,66.0,54.0,65,29.86,10.0,SE,8.1,-,N/A,,Scattered Clouds,140,2013-09-09 06:53:00
1:53 AM,66.0,53.1,63,29.85,10.0,South,5.8,-,N/A,,Mostly Cloudy,170,2013-09-09 07:53:00
2:53 AM,64.9,55.0,70,29.86,10.0,SSE,6.9,-,N/A,,Scattered Clouds,160,2013-09-09 08:53:00
3:53 AM,64.9,53.1,65,29.85,10.0,SE,8.1,-,N/A,,Mostly Cloudy,140,2013-09-09 09:53:00
4:53 AM,64.0,52.0,65,29.85,10.0,ESE,4.6,-,N/A,,Mostly Cloudy,110,2013-09-09 10:53:00
5:53 AM,64.0,52.0,65,29.84,10.0,SE,4.6,-,N/A,,Mostly Cloudy,140,2013-09-09 11:53:00
6:53 AM,64.9,55.0,70,29.85,10.0,SSE,6.9,-,N/A,,Mostly Cloudy,160,2013-09-09 12:53:00
7:53 AM,64.0,53.1,67,29.87,10.0,ESE,4.6,-,N/A,,Mostly Cloudy,120,2013-09-09 13:53:00
8:53 AM,69.1,55.0,61,29.87,10.0,SSE,6.9,-,N/A,,Mostly Cloudy,150,2013-09-09 14:53:00
9:53 AM,71.1,54.0,55,29.87,10.0,SE,6.9,-,N/A,,Mostly Cloudy,130,2013-09-09 15:53:00
10:53 AM,75.9,53.1,45,29.86,10.0,Calm,Calm,-,N/A,,Scattered Clouds,0,2013-09-09 16:53:00
11:53 AM,79.0,54.0,42,29.85,10.0,NNW,6.9,-,N/A,,Scattered Clouds,340,2013-09-09 17:53:00
12:53 PM,78.1,55.0,45,29.84,10.0,NW,10.4,-,N/A,,Scattered Clouds,320,2013-09-09 18:53:00
1:25 PM,78.8,55.4,44,29.98,10.0,NNW,8.1,-,N/A,,Scattered Clouds,330,2013-09-09 19:25:00
1:47 PM,80.6,55.4,42,29.97,10.0,NW,10.4,-,N/A,,Clear,320,2013-09-09 19:47:00
1:53 PM,80.1,55.9,43,29.83,10.0,NNW,11.5,-,N/A,,Scattered Clouds,330,2013-09-09 19:53:00
2:53 PM,82.0,53.1,37,29.80,10.0,North,10.4,17.3,N/A,,Scattered Clouds,350,2013-09-09 20:53:00
3:53 PM,81.0,51.1,35,29.79,10.0,NNW,8.1,16.1,N/A,,Scattered Clouds,340,2013-09-09 21:53:00
4:53 PM,82.0,50.0,33,29.79,10.0,NW,9.2,-,N/A,,Scattered Clouds,310,2013-09-09 22:53:00
5:53 PM,81.0,48.0,31,29.78,10.0,Variable,6.9,-,N/A,,Mostly Cloudy,0,2013-09-09 23:53:00
6:53 PM,81.0,45.0,28,29.78,10.0,WNW,6.9,-,N/A,,Mostly Cloudy,300,2013-09-10 00:53:00
7:53 PM,75.0,50.0,41,29.80,10.0,West,6.9,-,N/A,,Mostly Cloudy,280,2013-09-10 01:53:00
8:53 PM,72.0,51.1,48,29.81,10.0,West,3.5,-,N/A,,Mostly Cloudy,280,2013-09-10 02:53:00
9:53 PM,71.1,53.1,53,29.82,10.0,Calm,Calm,-,N/A,,Mostly Cloudy,0,2013-09-10 03:53:00
10:53 PM,71.1,52.0,51,29.81,10.0,SSE,3.5,-,N/A,,Scattered Clouds,160,2013-09-10 04:53:00
11:53 PM,68.0,50.0,52,29.81,10.0,SSE,3.5,-,N/A,,Mostly Cloudy,150,2013-09-10 05:53:00